Hourly Data Report for December 13, 2003

SHERBROOKE A
QUEBEC

45°26'00.000" N
71°41'00.000" W
241.40 m
7028124
71610
YSC

Download Data

Hourly Data (December 2003)
Hourly Data Report for December 13, 2003
TIME
LST
Temp Definition
°C
Dew Point Definition
°C
Rel Hum Definition
%
Precip. Amount Definition
mm

Wind Dir Definition
10's deg

Wind Spd Definition
km/h
Visibility Definition
km
Stn Press Definition
kPa
Hmdx Definition


Wind Chill Definition


Weather Definition


00:00 -10.5 -14.8 71   28 20 15.0 98.73   -18  
01:00 -11.1 -14.3 77   27 17 15.0 98.83   -19  
02:00 -12.4 -16.2 73   28 26 15.0 98.95   -22 Snow
03:00 -14.0 -18.3 70   28 15 15.0 99.04   -22  
04:00 -15.0 -19.2 70   28 20 15.0 99.15   -24  
05:00 -15.8 -19.5 73   25 13 15.0 99.26   -23  
06:00 -16.7 -19.4 80   25 7 15.0 99.36   -22  
07:00 -16.2 -19.1 78   26 11 15.0 99.42   -23  
08:00 -16.4 -19.5 77   26 9 24.1 99.50   -22 Mainly Clear
09:00 -15.1 -19.3 70   27 17 24.1 99.61   -24 Mainly Clear
10:00 -14.6 -19.3 67   28 32 24.1 99.67   -26 Mainly Clear
11:00 -13.9 -19.8 61   27 24 24.1 99.67   -24 Mainly Clear
12:00 -13.5 -20.1 58   29 28 24.1 99.72   -24 Mainly Clear
13:00 -13.4 -22.0 48   29 20 24.1 99.76   -22 Mainly Clear
14:00 -13.4 -21.8 49   29 20 24.1 99.80   -22 Mainly Clear
15:00 -13.4 -21.8 49   29 20 24.1 99.88   -22 Mainly Clear
16:00 -14.3 -21.9 52   28 13 24.1 99.96   -21 Clear
17:00 -15.8 -21.9 59   25 7 24.1 100.03   -21 Clear
18:00 -17.1 -22.8 61   27 7 15.0 100.09   -22  
19:00 -19.7 -23.4 72   30 4 15.0 100.09   -23  
20:00 -21.0 -24.9 71   21 7 15.0 100.16   -27  
21:00 -20.8 -24.4 73   13 4 15.0 100.24   -24  
22:00 -21.1 -25.0 71   22 4 15.0 100.25   -25  
23:00 -22.4 -26.4 70   9 4 15.0 100.27   -26  

Notes on Data Quality.

Legend

  • E = Estimated
  • M = Missing
  • NA = Not Available*
  • [empty] = Indicates an unobserved value
Date modified: